{"data":{"norad_id":69009,"epoch":"2026-05-24T23:59:15.906624Z","epoch_age_seconds":78199,"freshness":"FRESH","line1":"1 69009U 26100AF  26144.99948966  .00010812  00000+0  50983-3 0  9999","line2":"2 69009  97.4065  43.2141 0006768  71.1532 289.0437 15.19634889  3288","mean_motion":15.19634889,"eccentricity":0.0006768,"inclination_deg":97.4065,"raan_deg":43.2141,"arg_perigee_deg":71.1532,"mean_anomaly_deg":289.0437,"bstar":0.00050983,"rev_number":328,"period_min":94.759603798488,"perigee_km":502.28338758304,"apogee_km":511.60303215511,"semimajor_km":6885.0802098691,"source":"CELESTRAK","updated_at":"2026-05-25T13:38:09.038969Z"}}